DateTimeUTC,F1_A11,F1_S11,BsB_S11,BsG_S11,BsR_S11,BbsB_S11,BbsG_S11,BbsR_S11,BaB_A11,BaG_A11,BaR_A11,Tu_S11,T_S11,Uu_S11,U_S11,P_S11,T1_A11
2021-07-04T22:00:00Z,00000200,20000000,,,,,,,0000.10,-000.26,-000.05,19.4,26.0,10.7,07.2,0668.9,31.2
2021-07-04T22:01:00Z,00000200,20000000,,,,,,,0000.10,0000.55,0000.11,19.4,26.0,10.7,07.2,0668.9,31.2
2021-07-04T22:02:00Z,00000200,20000000,,,,,,,-000.37,-000.48,-000.30,19.4,26.0,10.7,07.2,0668.9,31.2
2021-07-04T22:03:00Z,00000200,60000000,,,,,,,0000.18,0000.31,0000.10,19.4,26.0,10.7,07.2,0668.9,31.2
2021-07-04T22:04:00Z,00000200,40000000,0000.40,0000.11,-000.00,0000.70,0000.18,-000.01,0000.18,-000.02,0000.28,19.4,25.8,10.7,07.2,0669.8,31.2
2021-07-04T22:05:00Z,00000200,00000000,0000.84,0000.09,0000.18,0000.74,0000.13,0000.24,-000.10,0000.19,-000.08,19.5,25.8,10.7,07.3,0669.8,31.2
2021-07-04T22:06:00Z,00000200,00000000,0000.25,0000.18,0000.26,0000.50,0000.04,0000.13,0000.23,-000.23,0000.16,19.5,25.8,10.7,07.3,0669.8,31.2
2021-07-04T22:07:00Z,00000200,00000000,0000.30,0000.16,-000.09,0000.58,0000.25,-000.05,-000.07,0000.10,0000.14,19.5,25.8,10.7,07.3,0669.8,31.2
2021-07-04T22:08:00Z,00000200,00000000,-000.05,-000.05,0000.01,0000.45,0000.07,-000.20,0000.16,0000.06,0000.03,19.5,25.8,10.8,07.4,0669.8,31.2
2021-07-04T22:09:00Z,00000200,00000000,-000.47,0000.35,0000.10,0000.97,-000.02,-000.38,-000.16,-000.33,-000.36,19.5,25.8,10.8,07.4,0669.8,31.2
2021-07-04T22:10:00Z,00000200,00000000,0000.06,0000.10,0000.20,0000.36,0000.14,0000.21,0000.14,0000.45,0000.26,19.5,25.7,10.8,07.4,0669.8,31.2
2021-07-04T22:11:00Z,00000200,00000000,0000.02,0000.23,0000.10,-000.28,-000.19,-000.19,-000.09,-000.20,-000.19,19.5,25.7,10.7,07.3,0669.8,31.2
2021-07-04T22:12:00Z,00000200,00000000,0000.54,0000.20,0000.35,0000.25,0000.12,-000.02,0000.62,0000.43,0000.51,19.5,25.7,10.7,07.4,0669.8,31.2
2021-07-04T22:13:00Z,00000200,00000000,-000.06,-000.22,0000.23,0000.12,0000.18,0000.34,-000.20,-000.12,-000.29,19.5,25.7,10.8,07.4,0669.8,31.2
2021-07-04T22:14:00Z,00000200,00000000,0000.48,0000.16,0000.09,0000.74,0000.13,0000.08,0000.10,0000.18,0000.55,19.5,25.7,10.8,07.4,0669.8,31.2
2021-07-04T22:15:00Z,00000200,00000000,0000.05,-000.10,0000.27,0000.22,0000.06,-000.19,-000.03,0000.26,-000.25,19.5,25.7,10.8,07.4,0669.8,31.2
2021-07-04T22:16:00Z,00000200,00000000,0000.44,0000.10,0000.31,0000.95,0000.21,-000.01,0000.22,0000.23,-000.39,19.5,25.7,10.9,07.5,0669.8,31.2
2021-07-04T22:17:00Z,00000200,00000000,0000.32,0000.06,0000.36,0000.74,-000.20,-000.06,-000.01,-000.32,0000.10,19.5,25.7,10.9,07.5,0669.8,31.2
2021-07-04T22:18:00Z,00000200,00000000,0000.26,0000.28,0000.16,0000.01,0000.12,-000.03,-000.15,-000.24,0000.17,19.5,25.7,10.9,07.5,0669.8,31.2
2021-07-04T22:19:00Z,00000200,00000000,0000.06,0000.31,0000.39,0000.18,-000.09,-000.01,-000.17,-000.05,-000.12,19.5,25.7,11.0,07.5,0669.8,31.2
2021-07-04T22:20:00Z,00000200,00000000,0000.48,0000.36,0000.22,-000.29,0000.14,0000.16,0000.46,0000.34,0000.15,19.5,25.7,11.0,07.5,0669.8,31.2
2021-07-04T22:21:00Z,00000200,00000000,0000.32,-000.00,0000.27,0000.79,0000.04,0000.02,0000.20,0000.16,0000.26,19.5,25.7,10.9,07.5,0669.8,31.2
2021-07-04T22:22:00Z,00000200,00000000,0000.37,0000.05,-000.10,0000.25,-000.06,-000.27,0000.04,0000.22,0000.38,19.5,25.7,10.9,07.5,0669.8,31.2
2021-07-04T22:23:00Z,00000200,00000000,-000.35,0000.23,0000.25,0000.59,0000.32,0000.11,-000.29,-000.10,-000.48,19.6,25.7,11.0,07.5,0669.8,31.2
2021-07-04T22:24:00Z,00000200,00000000,0000.37,0000.08,0000.08,-000.17,0000.05,-000.08,0000.22,0000.23,0000.18,19.6,25.8,10.8,07.5,0669.8,31.2
2021-07-04T22:25:00Z,00000200,00000000,0000.92,0000.38,0000.05,0000.64,0000.21,-000.02,0000.02,0000.10,-000.11,19.7,25.8,10.8,07.5,0669.8,31.2
2021-07-04T22:26:00Z,00000200,00000000,0000.08,-000.14,-000.11,0000.69,0000.15,-000.13,0000.30,-000.24,0000.28,19.7,25.8,10.8,07.5,0669.8,31.2
2021-07-04T22:27:00Z,00000200,00000000,0000.45,0000.47,0000.19,0000.39,0000.23,-000.00,-000.55,0000.00,-000.03,19.7,25.8,10.8,07.5,0669.8,31.2
2021-07-04T22:28:00Z,00000200,00000000,0001.01,0000.26,0000.25,0000.47,0000.19,0000.02,0000.35,0000.25,-000.27,19.7,25.8,10.7,07.4,0669.8,31.2
2021-07-04T22:29:00Z,00000200,00000000,0000.10,0000.14,-000.03,0000.39,0000.09,0000.15,0000.24,-000.01,0000.34,19.7,25.8,10.7,07.4,0669.8,31.2
2021-07-04T22:30:00Z,00000200,00000000,0001.03,0000.22,0000.15,0000.58,0000.08,0000.06,-000.16,-000.04,-000.06,19.7,25.8,10.7,07.4,0669.8,31.2
2021-07-04T22:31:00Z,00000200,00000000,0000.14,0000.41,0000.07,0000.15,0000.36,-000.17,0000.03,-000.01,0000.01,19.6,25.7,10.6,07.3,0669.8,31.2
2021-07-04T22:32:00Z,00000200,00000000,0000.04,0000.26,0000.28,0000.02,0000.19,0000.25,0000.17,0000.29,0000.20,19.6,25.8,10.5,07.3,0669.7,31.2
2021-07-04T22:33:00Z,00000200,00000000,0000.16,0000.33,0000.38,0000.68,-000.03,0000.17,-000.31,-000.43,-000.17,19.6,25.7,10.6,07.3,0669.7,31.2
2021-07-04T22:34:00Z,00000200,00000000,0000.21,0000.34,0000.19,0000.02,-000.07,0000.16,0000.52,0000.20,-000.00,19.6,25.7,10.6,07.3,0669.7,31.2
2021-07-04T22:35:00Z,00000200,00000000,0000.46,0000.17,-000.02,0000.39,0000.04,-000.14,0000.00,0000.20,0000.07,19.6,25.7,10.7,07.4,0669.7,31.2
2021-07-04T22:36:00Z,00000200,00000000,-000.23,-000.14,0000.09,0000.21,0000.01,0000.10,-000.02,-000.12,0000.14,19.6,25.7,10.7,07.3,0669.7,31.2
2021-07-04T22:37:00Z,00000200,00000000,-000.21,0000.02,0000.28,-000.09,0000.10,0000.30,0000.05,0000.04,-000.34,19.6,25.7,10.8,07.4,0669.7,31.2
2021-07-04T22:38:00Z,00000200,00000000,0000.32,0000.25,0000.25,0000.52,0000.13,0000.10,-000.19,0000.01,0000.18,19.6,25.7,10.6,07.3,0669.7,31.2
2021-07-04T22:39:00Z,00000200,00000000,0000.07,0000.44,0000.34,-000.17,0000.34,-000.10,0000.27,0000.15,0000.12,19.6,25.7,10.6,07.3,0669.7,31.2
2021-07-04T22:40:00Z,00000200,00000000,0000.28,-000.06,0000.38,0000.09,0000.21,0000.06,0000.08,-000.11,-000.22,19.6,25.7,10.5,07.2,0669.7,31.2
2021-07-04T22:41:00Z,00000200,00000000,0000.13,0000.16,0000.10,0000.54,0000.26,-000.07,-000.04,-000.04,0000.46,19.6,25.7,10.5,07.2,0669.7,31.2
2021-07-04T22:42:00Z,00000200,00000000,0001.36,-000.09,0000.10,0000.49,-000.04,0000.04,0000.01,0000.44,0000.06,19.5,25.7,10.4,07.2,0669.7,31.2
2021-07-04T22:43:00Z,00000200,00000000,0000.04,-000.05,0000.57,0000.32,0000.07,0000.07,-000.11,-000.24,-000.11,19.5,25.7,10.3,07.1,0669.7,31.2
2021-07-04T22:44:00Z,00000200,00000000,0000.65,0000.03,0000.12,0000.41,-000.06,0000.12,0000.17,0000.00,0000.02,19.5,25.7,10.4,07.2,0669.7,31.2
2021-07-04T22:45:00Z,00000200,00000000,0000.27,0000.41,-000.00,0000.26,0000.10,-000.29,-000.03,0000.31,0000.02,19.5,25.7,10.4,07.2,0669.7,31.2
2021-07-04T22:46:00Z,00000200,00000000,0000.80,0000.41,0000.31,0000.06,0000.32,0000.19,0000.06,-000.12,0000.41,19.5,25.7,10.5,07.2,0669.7,31.2
2021-07-04T22:47:00Z,00000200,00000000,-000.31,0000.18,0000.26,0000.23,0000.02,0000.05,0000.07,0000.16,-000.10,19.5,25.7,10.4,07.2,0669.7,31.2
2021-07-04T22:48:00Z,00000200,00000000,0000.14,0000.46,0000.11,0000.73,0000.27,0000.08,-000.05,-000.25,-000.28,19.5,25.6,10.5,07.2,0669.7,31.2
2021-07-04T22:49:00Z,00000200,00000000,-000.05,0000.33,0000.12,0000.31,0000.31,0000.28,0000.42,0000.67,0000.38,19.5,25.6,10.4,07.1,0669.7,31.2
2021-07-04T22:50:00Z,00000200,00000000,0000.25,-000.09,0000.12,0000.15,0000.19,0000.22,-000.16,-000.37,-000.31,19.5,25.7,10.5,07.2,0669.7,31.2
2021-07-04T22:51:00Z,00000200,00000000,0000.54,0000.19,0000.19,0000.36,0000.02,-000.16,0000.49,0000.14,0000.44,19.5,25.7,10.5,07.2,0669.7,31.2
2021-07-04T22:52:00Z,00000200,00000000,-000.45,0000.11,0000.12,0000.21,0000.05,0000.21,-000.11,0000.29,0000.07,19.5,25.7,10.5,07.2,0669.7,31.2
2021-07-04T22:53:00Z,00000200,00000000,0000.34,0000.39,0000.14,0000.30,0000.45,-000.06,0000.11,-000.31,-000.18,19.6,25.7,10.5,07.3,0669.7,31.2
2021-07-04T22:54:00Z,00000200,00000000,0000.84,0000.21,0000.18,0000.36,-000.15,0000.26,-000.29,0000.06,0000.08,19.6,25.7,10.5,07.3,0669.7,31.2
2021-07-04T22:55:00Z,00000200,00000000,-000.23,-000.10,0000.23,0000.14,0000.19,0000.15,0000.28,0000.08,-000.07,19.6,25.7,10.4,07.2,0669.7,31.2
2021-07-04T22:56:00Z,00000200,00000000,-000.36,0000.30,0000.10,0000.44,-000.11,0000.33,0000.06,0000.10,0000.04,19.7,25.8,10.4,07.2,0669.7,31.2
2021-07-04T22:57:00Z,00000200,40000000,,,,,,,-000.17,-000.10,-000.03,19.7,25.8,10.1,07.0,0669.7,31.2
2021-07-04T22:58:00Z,00000200,60000000,,,,,,,0000.02,0000.20,-000.15,19.5,25.9,10.4,07.0,0668.7,31.2
2021-07-04T22:59:00Z,00000200,20000000,,,,,,,-000.14,-000.21,0000.02,19.4,26.0,10.4,07.0,0668.7,31.2
